Weather History for Fort Myers, FL

Change the Weather History Date:

Thursday, July 11, 2013

  Actual Average Record
Temperature  
Mean Temperature 81 °F 83 °F  
Max Temperature 87 °F 92 °F 99 °F (1942)
Min Temperature 75 °F 74 °F 70 °F (1944)
Degree Days  
Heating Degree Days 0 0  
Month to date heating degree days 0 0  
Since 1 June heating degree days 0 0  
Since 1 July heating degree days 0 0  
Cooling Degree Days 16 18  
Month to date cooling degree days 186 198  
Year to date cooling degree days 1829 1789  
Since 1 June cooling degree days 691 723  
Growing Degree Days 31 (Base 50)    
Moisture  
Dew Point 73 °F    
Average Humidity 78    
Maximum Humidity 94    
Minimum Humidity 57    
Precipitation  
Precipitation T in 0.29 in 2.44 in (1978)
Month to date precipitation 6.08 3.31  
Year to date precipitation 26.57 25.20  
Sea Level Pressure  
Sea Level Pressure 29.99 in    
Wind  
Wind Speed 3 mph (South)    
Max Wind Speed 12 mph    
Max Gust Speed 14 mph    
Visibility 10 miles    
Events Rain , Thunderstorm    
T = Trace of Precipitation, MM = Missing Value Source: NWS Daily Summary

Daily Weather History Graph

Daily Weather History Graph

Search for Another Location

Airport:

Trip Planner

Search our weather history database for the weather conditions in past years. The results will help you decide how hot, cold, wet, or windy it might be!

Date:

Astronomy

Jul. 11, 2013 Rise Set
Actual Time 6:42 AM EDT 8:23 PM EDT
Civil Twilight 6:16 AM EDT 8:49 PM EDT
Nautical Twilight 5:45 AM EDT 9:20 PM EDT
Astronomical Twilight 5:12 AM EDT 9:53 PM EDT
Moon 9:37 AM EDT (7/11) 10:28 PM EDT (7/11)
Length of Visible Light 14h 33m
Length of Day
13h 41m
Waxing Crescent, 10% of the Moon is Illuminated
Jul 11
Waxing Crescent
Jul 15
First Quarter
Jul 22
Full
Jul 29
Last Quarter
Aug 6
New

Hourly Weather History & Observations

Time (EDT) Temp. Heat Index Dew Point Humidity Pressure Visibility Wind Dir Wind Speed Gust Speed Precip Events Conditions
12:53 AM 77.0 °F - 73.9 °F 90% - 10.0 mi East 4.6 mph - N/A   Scattered Clouds
1:53 AM 75.9 °F - 73.9 °F 94% - 10.0 mi Calm Calm - N/A   Clear
2:53 AM 75.9 °F - 73.9 °F 94% - 10.0 mi East 3.5 mph - N/A   Clear
3:53 AM 75.9 °F - 73.0 °F 91% - 10.0 mi SSE 3.5 mph - N/A   Clear
4:53 AM 75.0 °F - 73.0 °F 94% - 10.0 mi SE 3.5 mph - N/A   Clear
5:53 AM 75.0 °F - 73.0 °F 94% - 10.0 mi ESE 4.6 mph - N/A   Clear
6:53 AM 75.0 °F - 73.0 °F 94% - 10.0 mi Calm Calm - N/A   Clear
7:53 AM 77.0 °F - 73.9 °F 90% 30.02 in 10.0 mi Calm Calm - N/A   Clear
8:53 AM 80.1 °F 84.5 °F 73.9 °F 81% 30.02 in 10.0 mi ESE 4.6 mph - N/A   Clear
9:53 AM 82.9 °F 88.8 °F 73.0 °F 72% 30.02 in 10.0 mi SE 5.8 mph - N/A   Scattered Clouds
10:53 AM 82.9 °F 88.8 °F 73.0 °F 72% 30.02 in 10.0 mi SSW 4.6 mph - N/A   Mostly Cloudy
11:02 AM 82.4 °F 87.2 °F 71.6 °F 70% 30.01 in 10.0 mi SSW 6.9 mph - N/A Thunderstorm Mostly Cloudy
11:49 AM 80.6 °F 84.6 °F 71.6 °F 74% 30.01 in 10.0 mi WSW 3.5 mph - N/A   Mostly Cloudy
11:53 AM 81.0 °F 85.8 °F 73.0 °F 77% 30.02 in 10.0 mi SSW 4.6 mph - 0.00 in Rain Light Rain
12:18 PM 82.4 °F 89.5 °F 75.2 °F 79% 30.01 in 10.0 mi SSE 5.8 mph - 0.00 in Thunderstorm Scattered Clouds
12:33 PM 84.2 °F 92.3 °F 75.2 °F 74% 30.01 in 10.0 mi South 5.8 mph - 0.00 in   Clear
12:53 PM 84.9 °F 92.1 °F 73.9 °F 69% 30.02 in 10.0 mi Calm Calm - 0.00 in   Scattered Clouds
1:53 PM 82.9 °F 89.4 °F 73.9 °F 74% 30.01 in 10.0 mi Calm Calm - N/A   Scattered Clouds
2:53 PM 82.9 °F 89.4 °F 73.9 °F 74% 29.99 in 10.0 mi Calm Calm - N/A   Clear
3:53 PM 84.0 °F 90.2 °F 73.0 °F 69% 29.98 in 10.0 mi WSW 6.9 mph - N/A   Clear
4:53 PM 87.1 °F 92.8 °F 71.1 °F 59% 29.96 in 10.0 mi West 6.9 mph - N/A   Clear
5:53 PM 86.0 °F 90.7 °F 70.0 °F 59% 29.95 in 10.0 mi Variable 3.5 mph - N/A   Clear
6:53 PM 84.9 °F 90.1 °F 71.1 °F 63% 29.96 in 10.0 mi WNW 4.6 mph - N/A   Clear
7:53 PM 84.0 °F 89.0 °F 71.1 °F 65% 29.96 in 10.0 mi WSW 5.8 mph - N/A   Clear
8:53 PM 82.0 °F 86.7 °F 72.0 °F 71% 29.96 in 10.0 mi SW 3.5 mph - N/A   Clear
9:53 PM 81.0 °F 85.8 °F 73.0 °F 77% 29.98 in 10.0 mi SE 4.6 mph - N/A   Partly Cloudy
10:53 PM 79.0 °F - 72.0 °F 79% 29.99 in 10.0 mi South 4.6 mph - N/A   Clear
11:53 PM 79.0 °F - 72.0 °F 79% 29.98 in 10.0 mi Calm Calm - N/A   Clear